Cortland, IL

5:35 AM CST on February 08, 2016 (GMT -0600)
De Kalb Taylor Municipal

Weather History for KDKB - August, 2014

Change the Weather History Date:

Tuesday, August 26, 2014

  Actual Average (KARR) Record (KARR)
Temperature  
Mean Temperature 72 °F 69 °F  
Max Temperature 79 °F 81 °F 93 °F (2003)
Min Temperature 66 °F 58 °F 50 °F (2010)
Degree Days  
Heating Degree Days 0 1  
Month to date heating degree days 1  
Since 1 June heating degree days 51  
Since 1 July heating degree days 10  
Cooling Degree Days 8 5  
Month to date cooling degree days 149  
Year to date cooling degree days 560  
Since 1 June cooling degree days 519  
Growing Degree Days 22 (Base 50)    
Moisture  
Dew Point 65 °F    
Average Humidity 81    
Maximum Humidity 94    
Minimum Humidity 63    
Precipitation  
Precipitation 0.00 in 0.12 in 1.64 in (2012)
Month to date precipitation 3.61  
Year to date precipitation 24.69  
Sea Level Pressure  
Sea Level Pressure 30.09 in    
Wind  
Wind Speed 6 mph (NNW)    
Max Wind Speed 21 mph    
Max Gust Speed 37 mph    
Visibility 10 miles    
Events Rain , Thunderstorm    
T = Trace of Precipitation, MM = Missing Value Source: NWS Daily Summary

Daily Weather History Graph

Daily Weather History Graph

Search for Another Location

Airport or City:

Trip Planner

Search our weather history database for the weather conditions in past years. The results will help you decide how hot, cold, wet, or windy it might be!

Date:

Astronomy

Aug. 26, 2014 Rise Set
Actual Time 6:14 AM CDT 7:38 PM CDT
Civil Twilight 5:45 AM CDT 8:07 PM CDT
Nautical Twilight 5:10 AM CDT 8:42 PM CDT
Astronomical Twilight 4:33 AM CDT 9:18 PM CDT
Moon 7:16 AM CDT (8/26) 7:57 PM CDT (8/26)
Length of Visible Light 14h 21m
Length of Day
13h 23m
New Moon, 1% of the Moon is Illuminated
Aug 26
New Moon
Sep 2
First Quarter
Sep 8
Full
Sep 15
Last Quarter
Sep 24
New

Hourly Weather History & Observations

Time (CDT) Temp. Dew Point Humidity Pressure Visibility Wind Dir Wind Speed Gust Speed Precip Events Conditions
12:15 AM 67.3 °F 64.8 °F 92% 30.05 in 10.0 mi SW 5.8 mph - N/A   Clear
12:35 AM 68.0 °F 64.8 °F 89% 30.05 in 10.0 mi SW 8.1 mph - N/A   Clear
12:55 AM 68.4 °F 64.8 °F 88% 30.05 in 10.0 mi SW 5.8 mph - N/A   Clear
1:15 AM 68.4 °F 64.8 °F 88% 30.05 in 10.0 mi SW 6.9 mph - N/A   Clear
1:35 AM 67.5 °F 64.9 °F 92% 30.05 in 10.0 mi SSW 6.9 mph - N/A   Clear
1:55 AM 67.6 °F 64.9 °F 91% 30.04 in 10.0 mi SSW 6.9 mph - N/A   Clear
2:15 AM 68.9 °F 65.3 °F 88% 30.04 in 10.0 mi SW 8.1 mph - N/A   Clear
2:35 AM 69.8 °F 65.3 °F 86% 30.04 in 10.0 mi SW 10.4 mph - N/A   Clear
2:55 AM 70.0 °F 65.3 °F 85% 30.02 in 10.0 mi SW 10.4 mph - N/A   Clear
3:15 AM 70.0 °F 64.9 °F 84% 30.03 in 10.0 mi SW 8.1 mph - N/A   Clear
3:35 AM 70.5 °F 64.6 °F 81% 30.03 in 10.0 mi SW 8.1 mph - N/A   Clear
3:55 AM 70.2 °F 64.4 °F 82% 30.03 in 10.0 mi SW 6.9 mph - N/A   Scattered Clouds
4:15 AM 68.4 °F 64.4 °F 87% 30.04 in 10.0 mi SSW 4.6 mph - N/A   Scattered Clouds
4:35 AM 66.6 °F 64.4 °F 93% 30.04 in 10.0 mi SSW 5.8 mph - N/A   Clear
4:55 AM 67.3 °F 64.6 °F 91% 30.05 in 10.0 mi SSW 5.8 mph - N/A   Clear
5:15 AM 68.0 °F 65.3 °F 91% 30.05 in 10.0 mi SSW 3.5 mph - N/A   Mostly Cloudy
5:35 AM 67.3 °F 64.8 °F 92% 30.06 in 10.0 mi Calm Calm - N/A   Mostly Cloudy
5:55 AM 68.7 °F 65.7 °F 90% 30.07 in 10.0 mi West 3.5 mph - N/A   Scattered Clouds
6:15 AM 68.4 °F 65.8 °F 92% 30.07 in 10.0 mi Calm Calm - N/A   Clear
6:35 AM 68.0 °F 66.2 °F 94% 30.08 in 7.0 mi Calm Calm - N/A   Scattered Clouds
6:55 AM 70.7 °F 67.1 °F 88% 30.08 in 10.0 mi SW 4.6 mph - N/A   Scattered Clouds
7:15 AM 71.6 °F 67.5 °F 87% 30.09 in 10.0 mi West 4.6 mph - N/A   Clear
7:35 AM 71.1 °F 67.3 °F 88% 30.09 in 10.0 mi Calm Calm - N/A Thunderstorm Mostly Cloudy
7:55 AM 71.4 °F 68.0 °F 89% 30.09 in 10.0 mi West 3.5 mph - N/A Rain Light Rain
8:15 AM 72.1 °F 68.4 °F 88% 30.10 in 10.0 mi West 5.8 mph - N/A   Mostly Cloudy
8:35 AM 73.4 °F 68.0 °F 83% 30.10 in 10.0 mi WNW 5.8 mph - N/A   Overcast
8:55 AM 73.6 °F 68.9 °F 85% 30.09 in 10.0 mi NW 5.8 mph - N/A   Scattered Clouds
9:55 AM 72.5 °F 66.7 °F 82% 30.17 in 7.0 mi NW 20.7 mph 36.8 mph N/A   Overcast
10:15 AM 68.5 °F 62.8 °F 82% 30.15 in 10.0 mi North 13.8 mph 23.0 mph N/A   Overcast
10:35 AM 68.7 °F 63.5 °F 83% 30.12 in 10.0 mi North 12.7 mph 19.6 mph N/A Thunderstorm Scattered Clouds
10:55 AM 70.9 °F 64.2 °F 79% 30.12 in 10.0 mi NNE 15.0 mph 18.4 mph N/A Thunderstorm Clear
11:15 AM 72.7 °F 64.8 °F 76% 30.11 in 10.0 mi NE 13.8 mph 17.3 mph N/A   Clear
11:35 AM 73.4 °F 65.5 °F 76% 30.12 in 10.0 mi NNE 8.1 mph - N/A   Clear
11:55 AM 73.4 °F 64.9 °F 75% 30.14 in 10.0 mi NE 4.6 mph - N/A   Clear
12:15 PM 75.2 °F 66.6 °F 74% 30.13 in 10.0 mi East 4.6 mph - N/A   Clear
12:35 PM 75.6 °F 66.2 °F 73% 30.13 in 10.0 mi NE 3.5 mph - N/A   Clear
12:55 PM 75.6 °F 66.4 °F 73% 30.12 in 10.0 mi North 5.8 mph - N/A   Clear
1:15 PM 76.3 °F 66.6 °F 72% 30.11 in 10.0 mi North 4.6 mph - N/A   Clear
1:35 PM 76.6 °F 65.8 °F 69% 30.11 in 10.0 mi North 4.6 mph - N/A   Clear
1:55 PM 77.5 °F 67.6 °F 71% 30.11 in 10.0 mi ENE 5.8 mph - N/A   Clear
2:15 PM 77.9 °F 68.0 °F 71% 30.11 in 10.0 mi NE 5.8 mph - N/A   Clear
2:35 PM 77.9 °F 67.6 °F 71% 30.11 in 10.0 mi NNE 4.6 mph - N/A   Clear
2:55 PM 77.9 °F 67.1 °F 69% 30.11 in 10.0 mi Calm Calm - N/A   Clear
3:15 PM 77.9 °F 66.7 °F 68% 30.12 in 10.0 mi Calm Calm - N/A   Clear
3:35 PM 79.0 °F 67.5 °F 68% 30.12 in 10.0 mi North 4.6 mph - N/A   Clear
3:55 PM 78.8 °F 66.6 °F 66% 30.12 in 10.0 mi ENE 4.6 mph - N/A   Clear
4:15 PM 78.8 °F 65.1 °F 63% 30.11 in 10.0 mi Calm Calm - N/A   Clear
4:35 PM 78.8 °F 66.4 °F 66% 30.11 in 10.0 mi Calm Calm - N/A   Scattered Clouds
4:55 PM 79.0 °F 66.7 °F 66% 30.11 in 10.0 mi Calm Calm - N/A   Clear
5:15 PM 78.8 °F 65.8 °F 64% 30.10 in 10.0 mi North 3.5 mph - N/A   Clear
5:35 PM 77.9 °F 66.4 °F 68% 30.10 in 10.0 mi NNW 4.6 mph - N/A   Clear
5:55 PM 77.2 °F 66.0 °F 68% 30.09 in 10.0 mi NNW 5.8 mph - N/A   Clear
6:15 PM 76.6 °F 65.8 °F 69% 30.09 in 10.0 mi NW 4.6 mph - N/A   Clear
6:35 PM 75.7 °F 65.7 °F 71% 30.09 in 10.0 mi NNW 5.8 mph - N/A   Clear
6:55 PM 74.5 °F 64.4 °F 71% 30.09 in 10.0 mi NNW 5.8 mph - N/A   Clear
7:15 PM 72.7 °F 64.6 °F 76% 30.09 in 10.0 mi North 4.6 mph - N/A   Clear
7:35 PM 71.1 °F 64.4 °F 79% 30.09 in 10.0 mi North 5.8 mph - N/A   Clear
7:55 PM 69.8 °F 64.4 °F 83% 30.10 in 10.0 mi NNW 4.6 mph - N/A   Clear
8:15 PM 69.8 °F 64.4 °F 83% 30.09 in 10.0 mi North 5.8 mph - N/A   Clear
8:35 PM 68.5 °F 64.4 °F 87% 30.10 in 10.0 mi North 5.8 mph - N/A   Clear
8:55 PM 68.0 °F 64.0 °F 87% 30.11 in 10.0 mi North 5.8 mph - N/A   Clear
9:15 PM 68.0 °F 63.9 °F 87% 30.12 in 10.0 mi North 5.8 mph - N/A   Clear
9:35 PM 68.2 °F 64.0 °F 87% 30.12 in 10.0 mi North 4.6 mph - N/A   Clear
9:55 PM 68.2 °F 64.4 °F 88% 30.12 in 10.0 mi North 5.8 mph - N/A   Clear
10:15 PM 68.5 °F 63.9 °F 85% 30.12 in 10.0 mi North 6.9 mph - N/A   Clear
10:35 PM 68.9 °F 63.7 °F 83% 30.12 in 10.0 mi NNE 4.6 mph - N/A   Scattered Clouds
10:55 PM 68.0 °F 63.5 °F 85% 30.14 in 10.0 mi NNE 4.6 mph - N/A   Mostly Cloudy
11:15 PM 68.0 °F 63.1 °F 84% 30.13 in 10.0 mi NE 4.6 mph - N/A   Mostly Cloudy
11:35 PM 67.3 °F 63.0 °F 86% 30.13 in 10.0 mi Calm Calm - N/A   Mostly Cloudy
11:55 PM 66.2 °F 62.6 °F 88% 30.12 in 10.0 mi NE 4.6 mph - N/A   Scattered Clouds